Regional Weather Roundup
Issued by NWS Goodland, KS

Home | Current Version | Previous Version | Text Only | Print | Product List | Glossary Off
Versions: 1 2 3 4 5 6 7 8 9 10 11 12 13 14 15 16 17 18 19 20 21 22 23 24 25 26 27 28 29 30 31 32 33 34 35 36 37 38 39 40 41 42 43 44 45 46 47 48 49 50

000
ASUS43 KGLD 201608
RWRGLD

GOODLAND FORECAST AREA HOURLY WEATHER ROUNDUP
NATIONAL WEATHER SERVICE GOODLAND KS
1000 AM MDT WED SEP 20 2017

...OFFICIAL OBSERVATIONS...

CITY           SKY/WX    TMP DP  RH WIND       PRES   REMARKS
GOODLAND KS    SUNNY     66  27  23 N12       29.99S
HILL CITY KS   SUNNY     70  43  37 N13       29.95S
IMPERIAL NEB   SUNNY     65  29  25 NW13      29.98F
MCCOOK NEB     SUNNY     69  36  29 NW10      29.96R
AKRON CO       SUNNY     59  25  27 SW6       30.01S
BURLINGTON CO  SUNNY     67  23  19 NE14      30.02S
LIMON CO       SUNNY     57  27  31 S15G21    30.06F
$$

...UNOFFICIAL OBSERVATIONS...

CITY           SKY/WX    TMP DP  RH WIND       PRES   REMARKS
LENORA KS        N/A     68  32  26 MISG        N/A
NORTON KS      SUNNY     68  34  28 NW5       29.94S
SHARON SPRINGS   N/A     66  36  33 NE7         N/A
TRENTON NEB      N/A     66  32  28 N6          N/A
KIT CARSON CO    N/A     64  27  24 MISG        N/A
YUMA CO        FAIR      61  27  27 N6        30.00S
$$




USA.gov is the U.S. government's official web portal to all federal, state and local government web resources and services.